Location: Olda
(45.8833°N, 9.5500°E)
Time: 17:16:13
(UTC+00:00)

Cosmos 1727 Rocket - Pass Details

Date: 03 March 2021
Orbit: 961 x 996 km, 82.9° (Epoch: 11 April)

Event Time Altitude Azimuth Distance (km) Brightness Sun altitude
Rises 18:42:22 0° 357° (N) 3,658 7.1 -16.6°
Reaches altitude 10° 18:45:05 10° 6° (N) 2,708 6.4 -17.1°
Maximum altitude 18:50:48 38° 73° (ENE) 1,443 4.4 -18.1°
Enters shadow 18:52:57 29° 113° (ESE) 1,683 4.7 -18.4°
